Tracking 28794 objects as of 22-Apr-2024
HD Live streaming from Space Station
objects crossing your sky now

STARLINK-5892

Track STARLINK-5892 now!
10-day predictions
STARLINK-5892 is classified as:


NORAD ID: 55954
Int'l Code: 2023-037AS
Perigee: 577.7 km
Apogee: 580.7 km
Inclination: 70.0 °
Period: 96.1 minutes
Semi major axis: 6950 km
RCS: Unknown
Launch date: March 17, 2023
Source: United States (US)
Launch site: AIR FORCE WESTERN TEST RANGE (AFWTR)
Your satellite tracking list
Your tracking list is empty




NASA's NSSDC Master Catalog

Two Line Element Set (TLE):
1 55954U 23037AS  24112.58870912 -.00000163  00000-0 -58674-5 0  9990
2 55954  70.0042 196.8225 0002185 216.9921 143.1088 14.98328071 61557
Source of the keplerian elements: AFSPC